DW7413 Weather Reports


time (UTC)temp
C
wind
direction
speed
KPH
gust
KPH
rain 1hr
cm
rain 24hr
cm
rain mn
cm
humidity
%
barometer
mb
20260506102705 11 160 0.0 0.0 0.00 0.00 0.00 90 1018.0
20260506101705 11 160 0.0 0.0 0.00 0.00 0.00 90 1018.0
20260506100705 11 160 0.0 0.0 0.00 0.00 0.00 90 1018.0
20260506095706 11 160 0.0 0.0 0.00 0.00 0.00 90 1018.0
20260506094705 11 160 0.0 0.0 0.00 0.00 0.00 90 1017.9
20260506093706 11 160 0.0 0.0 0.00 0.00 0.00 90 1017.9
20260506092705 11 160 0.0 0.0 0.00 0.00 0.00 90 1017.9
20260506091705 11 160 0.0 0.0 0.00 0.00 0.00 89 1018.0
20260506090705 11 160 0.0 0.0 0.00 0.00 0.00 89 1018.0
20260506085705 11 160 0.0 0.0 0.00 0.00 0.00 89 1018.0
20260506084705 11 160 0.0 0.0 0.00 0.00 0.00 89 1018.0
20260506083705 11 160 0.0 0.0 0.00 0.00 0.00 88 1018.0
20260506082705 11 160 0.0 0.0 0.00 0.00 0.00 88 1018.0
20260506081705 11 160 0.0 0.0 0.00 0.00 0.00 88 1018.0
20260506080705 11 160 0.0 0.0 0.00 0.00 0.00 88 1017.9
20260506072705 12 160 0.0 0.0 0.00 0.00 0.00 87 1017.8
20260506071705 12 160 0.0 0.0 0.00 0.00 0.00 87 1017.7
20260506070706 12 160 0.0 0.0 0.00 0.00 0.00 86 1017.6
20260506061705 12 201 0.0 3.2 0.00 0.00 0.13 85 1017.2
20260506060706 12 180 0.0 1.6 0.00 0.00 0.13 85 1017.2
20260506050705 12 138 0.0 1.6 0.00 0.00 0.13 84 1016.5
20260506044706 12 132 0.0 0.0 0.00 0.00 0.13 83 1016.5
20260506043705 12 132 0.0 0.0 0.00 0.00 0.13 83 1016.4
20260506042705 12 132 0.0 0.0 0.00 0.00 0.13 83 1016.3
20260506041705 13 132 0.0 0.0 0.00 0.00 0.13 84 1016.1
20260506040707 13 134 0.0 1.6 0.00 0.00 0.13 83 1015.8
20260506035706 13 103 0.0 0.0 0.00 0.00 0.13 83 1015.7
20260506034705 13 129 0.0 0.0 0.00 0.00 0.13 82 1015.9
20260506033705 13 129 0.0 0.0 0.00 0.00 0.13 82 1015.9
20260506032706 13 129 0.0 0.0 0.00 0.00 0.13 82 1015.7
20260506031706 13 129 0.0 0.0 0.00 0.00 0.13 82 1015.6
20260506030706 13 129 0.0 0.0 0.00 0.00 0.13 81 1015.4
20260506025705 13 128 0.0 1.6 0.00 0.00 0.13 81 1015.2
20260506024705 13 145 0.0 0.0 0.00 0.00 0.13 80 1015.1
20260506023706 13 198 0.0 0.0 0.00 0.00 0.13 80 1015.1
20260506022705 13 118 0.0 1.6 0.00 0.00 0.13 80 1015.0
20260506021705 13 164 0.0 4.8 0.00 0.00 0.13 79 1014.9
20260506020706 13 181 0.0 4.8 0.00 0.00 0.13 79 1014.6
20260506015705 14 185 0.0 1.6 0.00 0.00 0.13 79 1014.8
20260506014705 14 131 0.0 0.0 0.00 0.00 0.13 80 1014.9
20260506013705 14 131 0.0 3.2 0.00 0.00 0.13 79 1014.9
20260506012705 14 128 0.0 3.2 0.00 0.00 0.13 78 1014.9
20260506011705 14 121 0.0 0.0 0.00 0.00 0.13 79 1014.8
20260506010707 14 130 0.0 1.6 0.00 0.00 0.13 78 1014.8
20260506005706 14 128 0.0 3.2 0.00 0.00 0.13 78 1014.7
20260506004706 14 191 0.0 8.0 0.00 0.00 0.13 78 1014.6
20260506003705 14 29 0.0 3.2 0.00 0.00 0.13 78 1014.6
20260506002706 14 146 0.0 0.0 0.00 0.00 0.13 78 1014.5
20260506001706 14 128 0.0 0.0 0.00 0.00 0.13 77 1014.6
20260506000705 14 143 0.0 1.6 0.00 0.00 0.13 76 1014.5
20260505235705 14 167 0.0 1.6 0.00 0.00 0.13 76 1014.5
20260505234705 14 67 0.0 1.6 0.00 0.00 0.13 76 1014.5
20260505233706 14 105 0.0 1.6 0.00 0.00 0.13 76 1014.4
20260505232705 14 103 0.0 0.0 0.00 0.00 0.13 76 1014.4
20260505231705 14 143 0.0 1.6 0.00 0.00 0.13 77 1014.5
20260505230705 14 118 0.0 0.0 0.00 0.00 0.13 78 1014.5
20260505225706 14 118 0.0 0.0 0.00 0.00 0.13 77 1014.5
20260505224705 14 224 0.0 0.0 0.00 0.00 0.13 77 1014.5
20260505223705 14 142 0.0 0.0 0.00 0.00 0.13 77 1014.6
20260505222705 14 178 0.0 3.2 0.00 0.00 0.13 77 1014.6
20260505221706 14 148 0.0 3.2 0.00 0.00 0.13 77 1014.8
20260505220705 14 180 0.0 0.0 0.00 0.00 0.13 77 1014.7
20260505215706 15 179 0.0 0.0 0.00 0.00 0.13 76 1014.9
20260505214705 15 167 0.0 0.0 0.00 0.00 0.13 75 1014.9
20260505213705 15 111 0.0 0.0 0.00 0.00 0.13 75 1014.9
20260505212705 15 192 0.0 0.0 0.00 0.00 0.13 75 1015.0
20260505211705 15 157 0.0 0.0 0.00 0.00 0.13 76 1015.0
20260505210705 14 138 0.0 0.0 0.00 0.00 0.13 77 1014.9
20260505205705 14 150 0.0 0.0 0.00 0.00 0.13 80 1014.9
20260505204706 13 188 0.0 0.0 0.00 0.00 0.13 80 1014.9
20260505203705 13 159 0.0 3.2 0.00 0.00 0.13 81 1014.9
20260505202706 13 178 0.0 1.6 0.00 0.00 0.13 82 1014.9
20260505201706 13 126 0.0 0.0 0.00 0.00 0.13 83 1014.9
20260505200705 12 155 0.0 0.0 0.00 0.00 0.13 82 1015.0
20260505195705 12 155 0.0 1.6 0.00 0.00 0.13 83 1015.1
20260505194707 12 173 0.0 3.2 0.00 0.00 0.13 83 1015.1
20260505193706 12 160 0.0 3.2 0.00 0.00 0.13 83 1015.1
20260505192705 12 176 0.0 6.4 0.00 0.00 0.13 84 1015.1
20260505191705 13 181 0.0 3.2 0.00 0.00 0.13 84 1015.1
20260505190705 12 193 0.0 3.2 0.00 0.00 0.13 85 1015.1
20260505185705 12 179 0.0 4.8 0.00 0.00 0.13 86 1015.1
20260505184706 12 128 0.0 1.6 0.00 0.00 0.13 86 1015.0
20260505183705 12 173 0.0 1.6 0.00 0.00 0.13 88 1015.0
20260505182706 12 127 0.0 1.6 0.00 0.00 0.13 89 1015.0
20260505181705 12 193 0.0 4.8 0.00 0.00 0.13 92 1015.0
20260505180706 12 205 0.0 0.0 0.00 0.00 0.13 93 1014.9
20260505175706 12 166 0.0 1.6 0.00 0.00 0.13 94 1014.8
20260505174705 11 140 0.0 0.0 0.00 0.00 0.13 95 1014.8
20260505173705 11 173 0.0 0.0 0.00 0.00 0.13 95 1014.7
20260505172705 10 117 0.0 0.0 0.00 0.00 0.13 96 1014.5
20260505171706 10 177 0.0 1.6 0.00 0.00 0.13 96 1014.6
20260505170705 10 137 0.0 3.2 0.00 0.00 0.13 96 1014.8
20260505165705 10 141 0.0 4.8 0.00 0.00 0.13 96 1014.8
20260505164706 10 173 0.0 4.8 0.00 0.00 0.13 96 1014.8
20260505163706 10 203 1.6 3.2 0.00 0.00 0.13 96 1014.7
20260505162706 9 169 0.0 1.6 0.00 0.00 0.13 96 1014.7
20260505161705 9 182 0.0 0.0 0.00 0.00 0.13 96 1014.5
20260505160706 9 180 0.0 1.6 0.00 0.00 0.13 96 1014.5
20260505152705 8 155 0.0 1.6 0.00 0.00 0.13 95 1014.4
20260505151706 8 126 0.0 1.6 0.00 0.00 0.13 95 1014.3
20260505150705 8 143 0.0 3.2 0.00 0.00 0.13 95 1014.3
20260505124706 8 159 0.0 1.6 0.00 0.00 0.13 95 1013.5
20260505123706 8 136 0.0 1.6 0.00 0.00 0.13 95 1013.3
20260505122706 8 136 0.0 0.0 0.00 0.00 0.13 95 1013.3
20260505121706 8 138 0.0 0.0 0.00 0.00 0.13 95 1013.3
20260505120706 8 146 0.0 0.0 0.00 0.00 0.13 95 1013.3
20260505115705 8 153 0.0 0.0 0.00 0.00 0.13 95 1013.3
20260505114706 8 174 0.0 0.0 0.00 0.00 0.13 95 1013.5
20260505113707 8 144 0.0 0.0 0.00 0.00 0.13 95 1013.4
20260505112706 8 105 0.0 3.2 0.00 0.00 0.13 95 1013.5
20260505111706 8 170 0.0 0.0 0.00 0.00 0.13 95 1013.4
20260505110706 8 119 0.0 0.0 0.00 0.00 0.13 95 1013.5